Wind_Speed
9 10 10 10 11 11 11 11 11 11 10 9 8 8 7 7 7 7 7 8 10 10 12 15 18 21 24 27 30 34 37 40 42 45 46 48 49 52 54 57 60 62 63 65
10 10 11 12 12 14 14 14 14 13 12 12 11 10 10 10 9 10 10 10 11 13 15 18 21 24 26 29 32 35 38 42 45 47 49 51 53 54 57 59 62 64 66 67
11 11 12 13 14 16 17 16 15 15 15 15 15 14 13 13 13 13 14 14 14 15 18 20 23 26 28 31 34 37 40 43 46 49 52 54 55 57 59 62 65 67 69 70
12 13 14 15 16 17 18 18 18 18 18 18 18 17 16 16 16 17 17 18 18 18 20 23 25 28 30 33 36 39 41 45 48 51 53 56 58 59 61 64 67 69 71 72
13 14 15 16 17 19 20 21 21 21 21 21 21 21 18 19 19 20 22 22 22 22 24 26 28 30 33 36 38 41 43 46 49 52 55 57 59 61 63 65 68 71 72 74
15 16 17 18 19 20 21 23 24 24 24 23 23 24 20 21 22 23 25 25 26 27 27 29 31 33 36 38 41 43 45 48 50 53 55 58 60 63 65 67 69 72 74 75
17 18 19 20 21 22 23 24 27 28 28 26 26 28 21 23 25 26 27 28 29 30 31 32 34 36 38 41 43 45 47 49 51 54 56 58 60 63 66 68 70 73 74 76
19 19 21 22 23 24 24 26 28 32 32 30 30 31 24 26 27 28 29 30 32 33 34 34 36 38 40 43 45 47 49 51 53 55 57 58 61 63 66 69 71 73 75 76
22 21 22 24 25 26 27 28 30 34 35 36 34 33 28 27 29 31 32 33 35 36 36 37 38 40 42 45 47 49 51 53 54 55 57 59 61 63 66 69 71 73 75 77
25 24 23 24 26 27 29 30 32 35 38 39 38 34 30 29 31 33 34 35 37 38 39 40 41 42 45 47 50 51 53 55 56 56 57 59 61 63 65 69 72 73 75 77
27 26 24 25 26 28 30 31 33 36 39 42 43 37 30 31 34 36 37 39 41 42 41 42 44 45 47 49 52 54 56 57 58 57 58 59 60 62 65 68 72 73 75 76
29 29 27 26 27 29 30 31 33 37 39 42 46 38 29 32 35 38 40 43 45 45 44 45 47 48 50 52 54 56 58 59 59 58 58 59 60 62 64 67 71 73 74 75
31 31 31 29 29 31 32 32 34 37 40 42 45 41 32 33 36 41 45 47 49 48 47 48 49 51 52 54 55 58 59 60 59 58 58 58 60 61 64 66 70 73 74 75
35 34 33 33 32 35 35 33 34 37 40 42 43 42 36 35 39 44 47 50 50 49 49 51 52 53 54 55 57 59 60 59 59 58 58 58 60 61 63 66 69 72 73 74
37 36 35 34 34 38 40 37 35 37 39 43 42 42 38 38 42 44 46 48 49 50 51 52 53 54 55 56 57 59 59 59 58 58 58 58 59 61 63 66 69 71 72 73
39 40 39 38 36 40 42 38 37 38 40 42 43 42 39 41 43 45 46 48 49 50 51 53 54 55 55 57 58 59 59 58 58 59 59 59 60 61 63 65 68 70 71 72
40 42 43 43 41 43 42 38 38 39 40 41 43 42 42 43 44 45 46 47 49 50 52 53 54 55 56 57 58 59 58 59 59 59 60 59 61 62 64 65 67 69 69 70
42 42 45 47 46 48 43 40 40 41 40 41 43 43 43 45 45 46 47 49 49 51 53 54 56 57 58 58 59 59 59 60 61 61 61 61 62 63 64 66 67 68 68 69
44 45 47 49 51 52 46 42 43 45 44 42 45 45 46 47 47 47 49 51 52 54 56 58 59 60 60 60 60 61 61 62 63 63 62 62 64 65 65 66 66 67 67 67
47 48 50 52 55 55 49 47 47 48 48 45 48 48 49 51 52 52 53 55 57 58 60 61 61 62 62 63 63 63 63 63 65 64 64 64 64 66 66 66 65 65 66 66
51 52 53 54 57 56 50 50 51 52 51 51 52 53 55 56 57 58 58 60 61 62 63 64 64 65 65 65 65 65 65 65 65 65 64 64 64 65 65 64 64 64 64 64
54 55 56 56 59 57 53 54 54 55 56 57 58 59 61 61 62 62 63 64 65 66 66 67 67 67 66 66 66 66 66 66 66 65 64 64 64 63 63 62 62 63 62 61
56 56 57 59 59 57 56 57 58 59 61 62 63 64 64 65 64 64 64 65 65 66 66 67 67 66 65 64 64 64 64 65 64 63 63 63 62 61 61 60 60 61 59 58
56 56 59 60 58 57 57 59 60 62 64 65 65 65 65 65 65 64 64 64 64 63 63 63 62 60 60 60 60 59 60 61 61 60 60 59 59 58 58 57 58 59 57 56
52 53 55 56 53 55 55 57 59 60 62 62 63 63 63 62 61 60 59 59 58 57 56 56 57 57 56 57 56 56 56 56 56 55 55 55 55 55 55 54 54 55 55 53
44 46 49 50 47 52 52 52 54 56 57 57 57 57 56 56 56 55 54 52 51 51 52 53 53 53 52 52 52 51 51 51 51 51 51 51 52 52 51 50 49 50 51 50
Wind_Direction
286 289 287 279 271 264 259 255 255 257 258 261 264 268 277 287 297 302 306 314 324 331 338 343 346 347 348 348 347 346 346 345 343 342 340 338 337 335 334 334 334 333 331 329
286 293 291 284 275 266 258 253 252 254 256 260 264 268 275 281 289 295 299 307 316 324 330 335 339 341 343 344 344 344 344 343 343 342 341 340 338 336 335 334 334 334 332 331
287 291 289 281 272 265 261 259 259 259 261 263 266 269 275 280 286 292 298 304 311 319 324 328 332 335 337 339 340 341 341 341 341 341 340 340 338 336 335 335 334 334 334 333
283 290 289 284 276 271 267 265 264 263 264 266 269 271 277 283 287 291 296 301 307 313 319 323 326 329 332 334 336 337 338 339 340 340 339 339 338 336 335 335 335 335 335 335
281 287 288 286 281 277 272 269 267 265 265 267 271 273 277 283 287 291 295 300 305 310 314 318 321 325 327 330 333 335 336 337 338 338 337 337 337 336 336 336 336 336 336 336
283 287 289 288 285 280 276 273 270 267 266 267 269 273 278 282 286 290 294 299 304 307 311 314 317 321 324 327 329 332 334 334 335 335 335 335 335 335 336 336 336 337 337 337
285 288 289 288 285 283 280 276 274 270 267 268 267 270 278 279 284 288 293 298 302 305 308 311 315 318 321 324 326 329 331 332 333 333 333 333 334 335 336 336 336 337 338 339
286 287 288 287 286 284 281 277 275 274 272 269 267 270 276 278 283 287 292 296 299 302 305 308 312 315 318 320 323 325 328 329 330 331 331 332 332 334 335 336 337 337 339 339
287 287 286 286 286 285 282 277 275 275 275 273 271 273 274 277 282 286 290 293 294 298 302 305 309 312 315 318 320 323 325 326 328 329 330 330 331 332 334 336 337 338 339 340
286 287 286 286 285 284 284 282 279 277 278 278 277 276 278 276 278 284 288 289 291 295 299 303 307 310 313 316 318 320 322 324 325 327 328 328 329 331 333 335 337 338 339 340
285 287 288 287 286 286 285 284 282 281 280 281 282 281 281 280 281 284 287 288 290 294 298 301 305 308 311 313 315 317 320 322 323 325 326 327 328 329 332 334 336 338 339 340
285 287 288 287 287 287 285 284 283 282 282 282 284 290 289 284 283 284 285 287 289 293 298 300 303 306 308 311 313 315 317 319 321 323 324 325 326 328 330 333 336 337 338 340
284 286 288 288 287 285 284 284 284 284 284 285 287 294 295 288 284 282 281 284 288 293 297 299 302 304 306 308 310 313 315 317 319 321 322 323 325 326 328 331 335 336 338 339
283 285 287 288 288 286 285 285 286 286 288 288 289 292 292 289 283 279 281 284 288 293 296 298 300 302 304 306 308 310 313 315 317 319 320 321 323 324 327 330 333 335 337 339
283 285 285 285 285 285 285 287 289 289 289 289 292 292 296 291 284 282 283 285 289 292 294 297 299 300 302 304 306 308 311 313 315 317 318 319 321 323 325 328 331 334 336 338
283 285 285 284 283 282 284 289 291 289 290 291 291 293 295 291 289 289 289 289 290 292 294 295 297 298 300 302 305 307 310 312 314 315 316 317 319 321 323 327 330 332 335 337
280 283 284 284 283 281 284 290 289 289 290 291 292 292 290 289 289 289 289 289 290 291 292 293 294 296 298 301 304 306 309 311 312 313 314 316 317 319 322 325 328 331 333 336
280 280 282 284 283 282 288 289 291 289 289 292 291 290 288 288 288 289 289 289 289 290 291 292 293 296 298 301 303 306 308 309 310 312 313 315 316 318 321 324 326 329 331 334
279 280 281 282 283 285 288 292 291 290 289 291 289 288 286 285 285 286 287 288 289 290 291 292 294 296 299 301 303 305 307 308 309 310 312 313 315 317 320 323 325 327 330 332
276 277 278 280 281 284 290 291 291 290 291 289 286 286 285 285 285 285 286 287 288 289 291 293 295 297 299 300 302 303 304 305 306 308 310 311 313 316 319 322 324 325 328 330
276 276 277 279 281 283 288 288 288 289 290 287 287 287 286 287 287 288 288 289 290 291 292 294 296 297 298 300 301 302 303 303 305 307 308 310 312 314 317 320 322 324 326 328
277 278 279 280 280 284 287 286 286 286 285 285 285 285 285 286 287 288 289 290 291 292 294 295 296 297 298 299 300 301 302 302 304 305 307 309 311 314 316 319 321 322 324 327
277 278 279 279 281 283 284 284 284 283 283 283 283 284 284 285 286 288 289 290 292 293 294 295 296 297 298 298 299 300 301 301 303 304 306 308 310 312 315 318 320 321 322 325
278 278 279 280 282 283 282 282 282 282 282 283 284 285 286 287 289 290 291 292 293 294 295 295 296 297 298 298 299 300 300 301 303 304 306 307 310 312 314 317 319 319 320 322
283 281 281 281 284 282 280 279 279 280 281 282 283 285 287 289 291 292 293 294 295 296 296 297 297 298 299 298 298 299 300 301 303 305 306 308 310 312 314 316 318 319 318 320
290 285 282 282 281 279 280 280 280 281 283 284 286 287 288 290 292 293 294 295 296 297 298 299 299 301 301 301 300 300 300 301 303 305 308 310 312 313 314 317 319 319 318 319
Height
5887 5886 5884 5882 5881 5880 5878 5877 5876 5874 5872 5871 5870 5868 5866 5864 5862 5859 5857 5854 5851 5847 5844 5840 5835 5831 5826 5821 5815 5809 5803 5796 5789 5782 5774 5765 5757 5748 5739 5729 5718 5707 5696 5684
5885 5883 5881 5879 5878 5877 5876 5874 5873 5871 5869 5868 5866 5865 5863 5861 5859 5856 5854 5851 5847 5843 5839 5835 5831 5826 5821 5816 5810 5803 5797 5790 5782 5774 5766 5757 5748 5739 5729 5718 5707 5695 5683 5670
5881 5881 5878 5877 5875 5874 5872 5871 5869 5867 5866 5864 5863 5862 5860 5857 5855 5853 5850 5847 5843 5839 5835 5830 5826 5821 5816 5810 5804 5798 5790 5783 5775 5766 5758 5749 5739 5729 5719 5708 5696 5683 5670 5656
5878 5877 5875 5873 5871 5869 5868 5866 5864 5863 5861 5860 5859 5857 5855 5853 5850 5848 5846 5842 5839 5835 5830 5826 5821 5816 5810 5804 5798 5791 5783 5776 5767 5759 5749 5740 5730 5720 5709 5697 5684 5671 5657 5643
5875 5873 5871 5869 5867 5865 5863 5861 5860 5858 5856 5855 5853 5851 5852 5848 5845 5843 5841 5837 5834 5830 5825 5820 5815 5810 5804 5798 5791 5784 5776 5768 5759 5750 5741 5731 5721 5710 5699 5686 5673 5659 5645 5630
5871 5869 5867 5865 5863 5861 5858 5856 5854 5852 5850 5850 5848 5845 5846 5843 5841 5838 5835 5831 5828 5824 5819 5814 5809 5803 5797 5790 5783 5776 5768 5760 5751 5742 5733 5723 5712 5701 5689 5676 5663 5648 5633 5617
5867 5865 5863 5861 5858 5856 5854 5852 5849 5846 5844 5844 5841 5838 5841 5838 5835 5832 5829 5825 5821 5817 5812 5807 5802 5796 5789 5782 5775 5768 5761 5752 5743 5734 5724 5714 5703 5691 5679 5666 5652 5638 5622 5606
5863 5861 5859 5856 5853 5851 5848 5846 5843 5840 5837 5836 5834 5831 5836 5832 5829 5825 5822 5819 5814 5810 5805 5800 5794 5788 5782 5775 5768 5760 5752 5744 5735 5725 5715 5705 5694 5682 5669 5656 5642 5627 5612 5595
5857 5856 5854 5850 5847 5845 5843 5840 5837 5833 5829 5827 5826 5826 5828 5826 5822 5818 5815 5811 5807 5802 5797 5792 5787 5781 5774 5767 5759 5752 5744 5735 5726 5716 5706 5696 5684 5672 5660 5647 5633 5618 5602 5585
5850 5850 5849 5845 5842 5839 5836 5834 5831 5826 5822 5818 5818 5818 5821 5819 5815 5811 5807 5803 5799 5794 5789 5784 5779 5773 5766 5758 5751 5743 5735 5726 5717 5707 5697 5686 5675 5663 5651 5638 5624 5608 5593 5576
5843 5843 5842 5839 5836 5833 5830 5828 5823 5819 5816 5811 5807 5812 5814 5812 5807 5803 5799 5793 5789 5785 5781 5775 5770 5764 5757 5750 5742 5733 5725 5716 5707 5698 5687 5677 5666 5654 5642 5629 5615 5599 5583 5567
5836 5835 5834 5833 5830 5826 5823 5820 5817 5813 5809 5803 5798 5803 5809 5804 5799 5794 5789 5784 5779 5775 5771 5766 5760 5754 5748 5740 5732 5724 5715 5706 5697 5688 5678 5668 5657 5645 5633 5620 5606 5591 5575 5559
5829 5827 5826 5825 5825 5820 5815 5813 5809 5805 5801 5796 5791 5794 5798 5795 5789 5783 5777 5773 5768 5765 5761 5756 5750 5744 5738 5730 5722 5714 5705 5696 5687 5678 5668 5658 5647 5636 5624 5611 5597 5582 5567 5551
5820 5819 5818 5817 5814 5809 5807 5805 5802 5797 5793 5788 5785 5784 5787 5784 5778 5771 5766 5761 5758 5755 5751 5745 5740 5734 5727 5720 5712 5703 5695 5687 5678 5669 5659 5649 5638 5627 5615 5602 5589 5574 5559 5544
5811 5811 5809 5807 5805 5799 5796 5796 5794 5789 5785 5780 5777 5774 5775 5770 5764 5760 5756 5752 5748 5745 5740 5734 5729 5722 5715 5708 5701 5693 5685 5676 5668 5659 5649 5639 5628 5617 5605 5593 5580 5567 5552 5537
5802 5800 5799 5798 5796 5790 5787 5788 5785 5780 5776 5772 5768 5766 5764 5757 5753 5749 5745 5741 5737 5733 5728 5722 5716 5710 5704 5697 5690 5682 5674 5666 5657 5648 5639 5629 5618 5607 5596 5584 5572 5559 5545 5530
5794 5790 5787 5786 5785 5780 5780 5781 5775 5772 5768 5763 5758 5757 5752 5747 5743 5738 5734 5729 5725 5720 5715 5709 5703 5698 5692 5685 5678 5671 5663 5655 5646 5637 5628 5618 5608 5597 5586 5575 5564 5551 5537 5523
5784 5780 5776 5773 5772 5768 5774 5770 5766 5761 5760 5754 5747 5744 5740 5736 5732 5727 5722 5718 5713 5707 5702 5696 5691 5685 5680 5673 5667 5660 5652 5644 5635 5626 5617 5607 5597 5587 5577 5567 5556 5543 5530 5517
5772 5769 5764 5761 5756 5755 5761 5760 5753 5748 5748 5744 5735 5731 5727 5723 5720 5716 5710 5705 5699 5694 5689 5683 5678 5673 5667 5661 5654 5647 5640 5631 5622 5614 5606 5596 5587 5577 5568 5558 5547 5536 5523 5510
5761 5757 5753 5748 5743 5742 5750 5746 5740 5735 5734 5730 5722 5717 5713 5709 5706 5704 5698 5692 5686 5681 5676 5670 5665 5660 5654 5648 5641 5634 5626 5618 5610 5602 5594 5585 5576 5567 5558 5549 5539 5528 5516 5503
5746 5744 5741 5736 5730 5730 5738 5733 5726 5723 5720 5714 5709 5704 5699 5694 5691 5687 5683 5678 5672 5667 5662 5657 5651 5646 5640 5634 5627 5619 5612 5604 5596 5590 5582 5574 5566 5557 5549 5540 5530 5520 5509 5497
5731 5729 5727 5723 5717 5720 5723 5717 5713 5708 5703 5699 5693 5689 5683 5679 5676 5672 5667 5663 5658 5652 5648 5642 5636 5631 5625 5619 5611 5605 5598 5590 5583 5576 5569 5562 5555 5547 5539 5531 5522 5512 5501 5490
5717 5717 5712 5708 5707 5708 5705 5701 5697 5692 5686 5682 5677 5673 5668 5663 5660 5656 5652 5648 5643 5637 5632 5626 5620 5615 5610 5603 5596 5590 5584 5576 5570 5563 5557 5550 5544 5536 5529 5521 5513 5504 5494 5483
5702 5701 5696 5692 5692 5694 5690 5684 5680 5675 5668 5664 5660 5656 5651 5647 5644 5640 5636 5632 5627 5622 5616 5610 5604 5599 5594 5588 5582 5576 5569 5563 5557 5551 5545 5539 5532 5526 5519 5512 5504 5495 5486 5476
5687 5686 5680 5676 5678 5675 5672 5668 5663 5657 5653 5648 5644 5640 5636 5631 5627 5624 5620 5616 5611 5606 5601 5595 5589 5584 5579 5573 5568 5562 5556 5550 5545 5539 5534 5528 5521 5515 5508 5502 5495 5487 5478 5470
5675 5670 5665 5660 5662 5654 5651 5650 5646 5641 5637 5633 5629 5626 5622 5617 5613 5609 5605 5601 5597 5592 5587 5581 5576 5570 5566 5560 5555 5550 5544 5538 5533 5528 5523 5517 5511 5505 5498 5492 5486 5478 5471 5463